Temperature
14 14 14 14 14 14 14 14 14 14 14 14 14 13 13 13 12 12 13 12 12 12 12 11 11 11 11 11 12 12 12 12 12 11 11 11 11 11 11 11 11 10 10
14 14 14 14 14 13 13 13 13 13 13 13 13 13 13 12 12 12 12 12 12 12 12 11 11 11 11 11 11 11 11 11 11 11 11 11 11 10 10 10 10 10 9
14 14 14 14 14 13 13 13 13 13 13 13 13 13 13 12 12 12 12 12 12 12 12 11 11 11 10 11 11 11 11 11 11 11 11 10 10 10 10 9 9 9 9
14 14 14 14 14 13 13 13 13 12 13 13 13 13 13 12 12 11 12 12 12 12 12 11 11 11 10 10 10 11 11 10 10 10 10 10 10 9 9 8 8 8 8
14 14 14 14 14 13 13 13 13 13 13 13 13 12 12 12 12 11 11 11 12 12 12 11 11 11 10 10 10 10 10 10 10 10 10 10 9 9 8 7 7 7 6
15 14 14 13 13 13 13 13 13 12 12 12 12 12 12 12 12 12 11 11 11 11 12 11 11 11 10 10 10 10 10 10 10 10 9 9 9 8 8 7 6 6 6
15 15 14 13 13 13 13 13 12 12 12 11 11 11 11 11 11 11 11 11 11 11 11 12 11 11 10 10 10 10 9 9 9 9 9 9 8 8 7 7 6 6 5
15 14 14 13 13 13 13 12 12 12 12 11 11 11 10 10 10 11 11 11 11 11 11 11 11 11 10 10 10 9 9 9 8 8 8 8 8 8 7 6 6 5 5
14 14 13 13 12 12 12 12 12 12 12 11 11 11 11 11 11 11 11 11 10 10 10 10 10 10 10 10 10 9 9 8 8 8 8 7 7 7 6 5 5 4 4
14 14 13 13 12 12 12 12 12 12 11 11 11 10 11 11 11 11 10 10 10 9 10 10 9 9 9 9 9 9 9 8 7 7 7 7 6 6 5 4 4 4 4
13 13 13 13 12 12 12 12 12 11 11 11 11 11 10 10 10 11 11 10 10 9 9 9 8 8 8 8 8 8 8 7 7 6 6 6 5 5 4 4 4 4 3
13 13 13 12 12 12 11 11 11 11 11 11 10 10 10 9 10 10 10 11 10 10 8 7 7 7 6 6 6 7 7 6 6 6 6 5 4 4 4 4 4 3 3
12 12 12 12 12 12 11 11 11 11 11 10 10 10 9 9 9 9 9 9 9 8 7 6 5 5 5 5 5 5 5 5 5 5 5 4 4 4 4 4 4 3 3
12 12 12 12 11 11 11 11 10 10 10 10 10 9 9 9 9 8 8 8 7 6 6 5 4 4 4 3 3 4 4 4 4 4 4 4 4 4 3 3 3 3 2
11 11 11 11 11 11 10 10 10 10 9 9 9 9 9 8 8 8 8 7 6 5 4 4 4 4 4 3 3 3 3 3 3 3 3 3 3 3 2 2 2 2 2
10 10 10 10 10 10 10 9 9 9 9 8 8 8 8 8 8 8 7 6 5 5 4 4 3 4 3 3 3 3 3 3 3 2 2 2 2 1 1 1 1 1 1
8 9 9 9 9 9 9 8 8 8 8 8 8 8 7 7 7 7 6 6 4 4 3 3 3 3 3 2 2 2 2 2 2 1 1 1 0 0 -0 -0 -0 -0 -1
7 8 8 8 8 8 8 8 7 7 7 7 7 7 7 7 6 6 5 4 3 3 3 3 3 2 2 2 1 1 1 1 0 0 -0 -1 -1 -1 -1 -1 -2 -2 -2
7 7 7 7 7 7 7 7 7 6 6 6 6 6 5 5 5 4 3 3 2 2 2 2 2 2 1 1 1 0 -0 -1 -1 -1 -2 -2 -2 -3 -3 -3 -3 -3 -3
6 6 6 6 6 6 6 6 6 6 5 5 5 4 4 3 3 2 2 1 1 2 2 1 1 1 0 -0 -1 -1 -2 -2 -3 -3 -3 -3 -3 -3 -4 -4 -4 -4 -4
5 5 5 5 5 5 5 5 4 4 4 3 3 2 2 1 1 1 1 1 1 1 1 0 -0 -0 -1 -2 -3 -4 -4 -4 -4 -4 -4 -4 -4 -4 -4 -4 -4 -4 -4
4 4 4 4 4 3 3 3 3 2 2 1 1 0 0 -0 -0 -0 -0 0 -0 -0 -1 -1 -2 -3 -4 -5 -5 -6 -5 -5 -5 -4 -5 -4 -4 -4 -4 -4 -4 -4 -4
2 2 2 2 2 1 1 1 1 1 0 -0 -0 -0 -1 -0 -1 -1 -1 -1 -2 -2 -3 -3 -4 -4 -5 -6 -6 -6 -6 -6 -6 -6 -6 -5 -4 -4 -4 -4 -4 -4 -4
1 1 1 0 0 -0 -0 0 0 -0 -0 -0 -1 -1 -1 -1 -1 -2 -2 -2 -3 -3 -4 -5 -5 -5 -6 -6 -6 -6 -6 -6 -5 -6 -7 -6 -4 -4 -4 -3 -4 -4 -4
0 0 -0 -0 -0 -0 -1 -1 -1 -1 -1 -1 -1 -2 -2 -2 -2 -3 -3 -4 -4 -5 -6 -6 -6 -6 -6 -6 -6 -7 -7 -7 -6 -5 -6 -6 -5 -5 -4 -3 -3 -3 -4
-0 -0 -0 -0 -0 -1 -1 -1 -1 -1 -2 -2 -3 -3 -3 -4 -4 -4 -5 -5 -6 -7 -7 -7 -6 -6 -6 -6 -7 -7 -7 -7 -7 -7 -5 -6 -6 -7 -6 -3 -3 -3 -3
Wind_Speed
5 7 8 12 14 14 13 11 10 9 8 8 7 4 6 6 9 15 13 13 12 10 9 9 9 9 9 9 9 10 10 10 10 11 11 12 12 12 13 13 13 13 13
8 6 6 8 10 12 13 12 9 6 6 6 5 5 5 5 8 16 16 14 12 11 10 9 9 9 8 8 8 8 8 8 8 9 9 10 10 10 11 11 11 12 12
11 9 4 4 8 12 12 10 9 7 5 5 4 5 5 6 6 14 17 16 13 12 11 11 10 9 8 8 8 8 7 7 6 7 7 7 7 8 8 9 9 10 10
14 10 5 5 10 10 8 4 5 4 5 5 5 4 4 4 6 10 16 17 16 13 12 12 11 10 9 8 7 7 6 5 5 4 4 4 5 5 6 7 7 8 9
15 11 6 7 11 7 4 5 4 5 5 5 5 5 4 4 4 6 10 15 18 18 15 13 12 11 10 8 7 6 5 5 4 3 2 2 2 4 5 6 7 7 8
13 11 6 8 10 6 6 6 6 5 5 6 4 4 4 5 4 4 6 10 15 19 19 16 14 12 11 10 8 6 5 5 4 3 1 1 2 4 5 6 7 8 9
12 9 4 6 7 9 9 8 6 7 5 5 4 1 2 3 5 5 5 6 10 15 19 19 17 16 14 12 10 8 6 5 4 4 2 2 3 5 6 7 9 9 10
13 10 8 7 7 8 10 10 8 6 5 6 5 4 3 4 5 6 6 6 7 12 13 18 19 18 17 15 12 10 8 6 5 4 3 3 4 6 8 9 10 11 12
14 13 10 8 8 9 9 11 10 10 8 7 5 5 5 7 4 5 7 7 7 7 8 13 16 17 17 17 16 12 9 6 5 4 4 4 6 7 9 11 12 13 13
12 14 12 11 11 9 10 10 11 8 8 7 6 6 4 4 5 4 4 5 7 8 8 9 12 15 16 15 16 14 11 7 5 4 4 5 7 9 11 13 14 14 15
10 11 12 11 12 10 11 11 10 10 9 8 7 5 5 2 2 4 4 5 5 6 7 7 9 12 15 14 15 15 12 9 6 5 6 7 9 11 13 14 15 15 16
6 9 10 11 11 11 11 11 11 11 11 10 9 6 5 4 5 4 3 3 4 4 4 4 6 9 13 14 14 15 12 9 7 7 7 9 11 12 14 15 16 16 17
4 6 8 9 9 10 10 10 10 10 11 10 10 8 7 6 3 4 3 3 3 1 2 2 3 8 10 11 13 14 11 9 8 8 9 11 12 13 14 15 17 18 18
5 5 4 6 8 8 8 8 8 8 8 10 10 8 6 6 4 4 4 5 4 1 1 2 2 4 7 9 11 11 8 9 9 10 11 12 14 15 15 16 17 18 19
5 5 4 3 4 5 6 6 6 6 6 7 7 7 5 3 4 4 3 4 7 6 6 3 2 2 6 7 9 7 5 7 11 12 14 15 16 16 17 17 18 19 20
6 5 4 2 1 1 3 4 3 3 4 4 3 5 4 4 4 3 4 3 3 5 5 3 2 2 4 6 7 4 5 9 12 14 16 17 17 17 18 19 19 20 21
6 5 5 3 2 1 1 2 2 3 4 3 3 5 5 5 5 4 4 4 3 4 4 3 2 2 3 4 4 5 8 10 12 15 17 17 18 18 19 20 21 21 21
8 7 7 6 5 5 4 3 3 3 3 4 4 5 5 5 6 5 5 5 4 3 4 5 3 4 4 4 4 5 8 10 11 14 16 17 18 19 19 20 21 21 21
8 9 9 9 8 7 7 6 6 6 5 5 5 6 6 7 6 5 5 5 4 3 3 4 3 2 3 3 4 5 7 8 10 12 14 15 17 18 20 20 20 21 21
10 10 10 10 10 9 9 8 8 8 8 7 7 6 6 6 6 6 5 5 4 4 4 3 3 2 3 3 3 4 4 4 4 7 11 15 17 19 19 20 21 21 21
10 9 10 10 10 9 8 9 9 9 9 9 8 7 6 7 8 5 5 5 4 3 3 2 2 2 2 2 3 3 3 2 3 4 4 7 10 11 15 19 21 21 22
10 10 10 10 10 9 12 13 11 9 8 8 8 7 7 6 6 7 7 6 5 3 3 2 1 2 2 2 1 0 1 2 4 3 3 6 6 7 11 15 20 22 22
10 10 10 10 11 12 15 15 15 10 9 8 7 6 6 7 7 5 4 3 1 1 2 2 1 1 1 0 1 1 2 4 5 5 5 9 7 9 11 17 21 22 23
9 9 10 10 11 13 16 16 16 10 9 8 7 6 5 4 4 3 1 1 1 2 1 1 1 1 1 1 1 2 4 5 6 5 5 7 7 8 9 13 20 22 23
9 8 8 9 10 10 14 14 12 6 6 5 4 3 3 2 2 3 2 1 2 3 2 1 4 6 9 10 9 3 3 4 6 5 3 4 4 5 7 8 14 16 16
8 7 8 7 7 6 10 10 8 3 3 2 1 2 4 4 4 5 4 3 3 3 4 5 6 7 7 8 10 5 4 4 4 4 2 2 3 4 6 4 4 8 13
Wind_Direction
185 189 186 181 187 189 189 184 208 196 185 188 203 184 174 195 136 132 134 136 139 143 144 142 137 130 123 116 108 100 93 87 81 76 72 67 61 58 55 52 48 45 42
189 197 195 188 194 192 184 187 205 189 177 175 182 193 194 184 149 140 142 142 147 152 155 154 149 142 135 127 118 109 100 92 86 79 73 67 60 54 51 49 45 40 36
196 197 201 191 195 196 190 187 201 189 169 164 178 193 194 189 168 144 152 151 151 157 162 164 160 154 147 138 130 121 110 100 93 86 77 67 57 49 43 39 35 32 27
210 198 194 201 194 193 193 185 190 173 164 163 179 192 184 177 180 161 157 159 160 161 165 168 167 164 158 150 143 136 127 118 109 99 85 67 48 34 27 22 18 15 12
217 208 195 197 190 190 193 195 188 173 174 180 189 181 180 174 197 178 161 164 167 166 165 165 164 165 165 162 157 152 149 145 140 128 104 62 25 6 359 357 354 352 351
223 218 203 197 187 187 198 198 190 187 180 178 177 168 189 184 193 186 182 173 167 167 167 166 165 167 171 172 171 171 172 173 174 174 177 320 334 337 336 334 334 332 332
226 225 220 205 192 195 199 197 185 192 190 154 127 152 264 231 209 197 194 178 173 173 170 173 177 179 181 184 183 184 187 190 195 202 220 271 305 315 317 317 317 317 316
223 224 223 221 208 202 201 201 192 183 184 165 149 141 206 251 254 219 199 192 183 181 178 180 183 181 183 185 186 187 189 193 202 215 236 271 296 306 309 308 308 308 307
217 218 221 222 218 211 211 208 201 188 191 194 184 165 174 208 214 228 214 198 187 183 184 184 187 182 179 178 180 181 181 186 203 225 254 282 296 302 304 304 304 303 303
213 214 215 217 221 219 216 214 210 201 181 194 220 232 212 160 164 200 232 211 195 190 186 190 188 183 179 168 169 171 175 181 200 225 258 282 294 299 301 302 302 301 301
213 211 211 214 219 220 219 216 214 206 198 191 198 207 230 253 189 155 196 210 209 205 189 182 179 177 173 164 160 166 172 182 202 229 260 280 291 297 300 301 301 300 299
231 215 210 211 215 218 219 218 218 213 209 203 200 194 185 195 208 190 174 182 199 209 185 167 166 165 166 165 166 168 175 188 211 237 264 281 292 298 301 301 299 297 294
269 237 216 212 214 217 217 215 218 220 214 211 208 205 202 204 187 197 181 152 142 113 118 115 127 145 154 153 157 167 181 201 226 247 269 285 296 300 299 297 295 293 291
296 288 247 223 214 212 212 212 218 222 218 218 217 206 202 202 185 186 180 154 143 128 107 131 71 110 130 136 161 172 193 221 242 260 275 287 294 295 294 292 292 291 290
305 311 306 271 237 215 209 205 219 222 217 218 216 203 190 179 168 164 160 168 168 180 195 172 150 115 123 130 162 179 212 244 259 268 276 284 287 288 288 288 289 289 287
329 337 343 332 306 236 202 195 206 210 203 204 189 175 166 153 145 143 150 149 159 167 172 170 169 137 140 165 186 211 251 267 273 276 279 282 284 285 286 287 288 287 285
349 354 355 0 13 45 105 145 157 155 166 152 140 151 148 137 138 134 131 135 137 135 150 153 153 153 164 181 211 245 258 261 264 270 277 282 285 287 288 289 288 287 285
14 17 24 32 41 48 57 78 98 108 127 132 128 129 135 133 129 129 132 133 131 120 142 156 167 172 189 198 213 235 252 257 259 271 280 284 287 289 290 290 289 287 286
29 34 40 43 45 48 53 60 72 76 82 95 112 126 131 132 130 127 125 125 121 108 95 133 144 160 189 204 214 235 246 254 262 272 282 289 293 294 293 292 291 289 287
39 44 49 50 51 52 57 62 69 73 75 76 80 94 109 124 129 127 122 119 118 110 100 112 127 167 198 203 200 227 250 251 265 279 289 292 294 297 297 298 296 294 290
45 48 54 54 53 55 63 73 76 80 82 82 78 79 89 110 126 124 127 126 126 121 127 143 170 185 201 204 211 214 239 280 286 276 278 285 292 291 291 293 294 291 289
48 52 57 60 61 65 75 81 84 78 80 82 80 71 75 79 101 109 124 134 147 147 163 171 181 207 235 230 189 122 3 322 298 294 310 292 285 282 282 282 287 290 291
58 59 62 67 69 72 76 80 81 77 75 71 69 66 64 59 54 49 68 81 87 237 207 169 201 258 286 73 90 329 283 267 262 269 293 290 280 279 279 284 290 294 295
63 63 63 64 69 70 75 79 81 75 74 70 65 63 69 66 57 40 30 59 320 294 262 174 164 280 315 292 240 251 258 277 274 274 275 280 283 280 286 284 289 292 294
68 65 65 64 66 66 71 75 78 74 79 77 73 61 54 63 41 12 13 7 327 317 315 289 282 287 288 286 278 267 279 293 295 290 260 265 287 298 288 279 283 292 298
78 79 75 72 72 69 69 68 70 74 81 87 102 92 60 45 21 16 20 8 351 9 12 348 319 304 294 284 283 251 212 235 267 291 286 300 300 329 308 278 267 287 292
Height
1550 1552 1552 1553 1554 1555 1556 1557 1559 1560 1560 1561 1561 1562 1562 1562 1562 1560 1560 1561 1561 1561 1561 1561 1561 1561 1561 1561 1561 1561 1561 1561 1560 1560 1560 1559 1559 1559 1558 1558 1557 1557 1557
1548 1549 1551 1551 1552 1553 1554 1555 1557 1558 1558 1559 1559 1560 1560 1560 1560 1558 1558 1558 1558 1558 1559 1559 1559 1559 1560 1560 1560 1560 1560 1560 1560 1559 1559 1559 1558 1558 1557 1557 1556 1556 1556
1545 1546 1548 1549 1550 1551 1552 1552 1553 1555 1555 1555 1556 1557 1557 1557 1557 1556 1555 1555 1555 1556 1556 1557 1557 1558 1558 1558 1559 1559 1559 1559 1559 1558 1558 1557 1557 1557 1556 1556 1555 1555 1554
1543 1543 1544 1545 1547 1548 1548 1549 1550 1550 1551 1551 1552 1553 1554 1554 1554 1554 1552 1551 1552 1553 1553 1554 1555 1555 1556 1557 1557 1557 1557 1557 1557 1557 1556 1556 1555 1555 1554 1554 1554 1553 1553
1538 1540 1540 1541 1542 1543 1544 1545 1545 1546 1547 1547 1548 1549 1549 1550 1551 1551 1549 1548 1548 1549 1550 1551 1552 1553 1553 1554 1555 1555 1555 1555 1555 1555 1554 1554 1553 1553 1553 1552 1552 1551 1551
1533 1535 1535 1536 1537 1538 1538 1539 1540 1541 1542 1543 1544 1545 1545 1545 1546 1546 1546 1545 1545 1545 1545 1547 1548 1549 1550 1551 1551 1552 1552 1552 1552 1552 1552 1551 1551 1551 1550 1550 1549 1549 1549
1528 1528 1530 1531 1531 1531 1532 1534 1535 1536 1537 1538 1540 1540 1540 1540 1540 1541 1541 1541 1541 1541 1541 1542 1544 1545 1546 1547 1548 1548 1549 1549 1549 1549 1549 1548 1548 1548 1547 1547 1547 1546 1546
1521 1522 1523 1524 1525 1526 1527 1528 1529 1529 1530 1531 1532 1533 1534 1535 1533 1534 1534 1535 1535 1536 1536 1537 1538 1539 1541 1542 1543 1544 1545 1545 1546 1545 1545 1545 1544 1544 1544 1543 1543 1542 1542
1514 1515 1516 1518 1519 1520 1520 1521 1522 1523 1523 1524 1524 1526 1526 1524 1526 1527 1527 1528 1529 1529 1530 1531 1532 1534 1535 1536 1538 1539 1540 1541 1541 1541 1541 1540 1540 1540 1539 1539 1539 1538 1538
1509 1509 1509 1511 1512 1513 1514 1515 1516 1516 1516 1516 1517 1518 1521 1520 1520 1519 1520 1521 1522 1523 1524 1525 1527 1528 1529 1530 1531 1533 1535 1536 1536 1536 1536 1535 1535 1535 1534 1534 1534 1533 1532
1503 1503 1503 1504 1505 1506 1507 1508 1509 1509 1509 1509 1510 1511 1513 1515 1514 1514 1514 1514 1515 1516 1517 1519 1520 1522 1523 1524 1525 1527 1529 1530 1530 1530 1530 1530 1530 1529 1529 1528 1528 1527 1526
1498 1497 1497 1497 1498 1498 1499 1500 1501 1502 1502 1502 1503 1504 1505 1507 1507 1508 1508 1508 1509 1510 1512 1513 1514 1515 1516 1517 1518 1521 1523 1524 1524 1524 1524 1524 1523 1523 1522 1521 1520 1520 1519
1492 1492 1491 1491 1491 1491 1492 1493 1494 1494 1495 1495 1495 1496 1497 1499 1501 1502 1503 1502 1503 1503 1505 1507 1508 1509 1510 1512 1513 1515 1516 1518 1518 1519 1518 1518 1517 1515 1514 1513 1513 1512 1511
1485 1485 1485 1485 1485 1485 1485 1486 1486 1487 1487 1488 1489 1489 1489 1490 1492 1494 1495 1496 1495 1496 1496 1498 1500 1501 1503 1505 1507 1508 1509 1511 1512 1512 1511 1511 1510 1508 1506 1505 1504 1503 1502
1479 1479 1478 1478 1478 1479 1479 1479 1479 1480 1480 1481 1482 1482 1482 1483 1484 1485 1486 1487 1488 1488 1488 1489 1490 1493 1495 1499 1501 1502 1503 1504 1505 1504 1504 1503 1502 1500 1499 1497 1496 1495 1494
1473 1473 1472 1472 1472 1472 1473 1473 1473 1474 1474 1474 1475 1476 1476 1476 1477 1477 1478 1479 1480 1482 1482 1482 1485 1488 1490 1492 1494 1496 1496 1496 1497 1497 1496 1495 1494 1492 1490 1489 1487 1486 1485
1468 1467 1467 1467 1467 1467 1467 1468 1468 1468 1469 1469 1469 1470 1470 1470 1470 1470 1471 1471 1473 1475 1476 1478 1481 1482 1484 1486 1487 1489 1490 1489 1489 1489 1488 1487 1485 1484 1482 1481 1479 1478 1477
1464 1463 1463 1462 1462 1462 1462 1463 1463 1463 1463 1463 1464 1464 1464 1464 1464 1464 1465 1466 1468 1470 1473 1474 1476 1478 1480 1481 1482 1482 1483 1482 1482 1481 1480 1479 1478 1476 1475 1473 1471 1470 1469
1461 1460 1459 1459 1459 1459 1458 1458 1459 1459 1459 1459 1459 1458 1459 1459 1459 1460 1462 1464 1466 1468 1469 1471 1472 1474 1475 1476 1476 1476 1476 1476 1475 1474 1473 1472 1471 1469 1468 1466 1464 1463 1462
1459 1458 1457 1457 1456 1456 1456 1455 1455 1455 1454 1454 1454 1454 1455 1456 1457 1458 1460 1462 1464 1465 1466 1468 1469 1469 1470 1470 1470 1470 1470 1470 1469 1468 1467 1466 1464 1463 1461 1460 1458 1456 1455
1457 1457 1456 1455 1455 1454 1453 1453 1452 1452 1452 1452 1452 1453 1454 1455 1457 1458 1460 1461 1463 1463 1463 1464 1465 1465 1465 1465 1466 1465 1465 1464 1463 1463 1460 1459 1458 1456 1455 1453 1451 1450 1448
1457 1456 1455 1454 1454 1453 1452 1452 1451 1451 1451 1452 1452 1454 1455 1456 1458 1459 1459 1460 1461 1461 1460 1461 1461 1461 1462 1462 1462 1462 1461 1459 1457 1457 1455 1453 1452 1450 1449 1447 1445 1444 1442
1457 1457 1456 1455 1454 1454 1454 1453 1453 1453 1453 1454 1454 1455 1456 1457 1457 1458 1458 1458 1458 1457 1458 1458 1458 1458 1458 1458 1458 1457 1456 1455 1453 1452 1450 1446 1446 1443 1442 1440 1439 1438 1436
1459 1459 1458 1458 1457 1457 1456 1456 1455 1455 1455 1455 1456 1456 1456 1456 1456 1455 1455 1455 1455 1455 1454 1454 1455 1454 1454 1454 1453 1453 1451 1450 1448 1447 1446 1441 1439 1437 1435 1434 1433 1432 1430
1462 1461 1461 1460 1460 1459 1458 1458 1457 1457 1456 1456 1456 1455 1455 1454 1454 1453 1453 1453 1452 1452 1452 1452 1451 1451 1450 1450 1449 1449 1447 1446 1443 1442 1441 1437 1434 1430 1427 1427 1426 1425 1423
1464 1464 1463 1463 1462 1461 1460 1459 1458 1457 1457 1456 1455 1454 1453 1453 1452 1452 1451 1451 1450 1450 1449 1448 1448 1448 1447 1447 1446 1446 1444 1443 1440 1437 1435 1434 1430 1427 1420 1417 1417 1417 1415